Meteo Giornale » Osservazioni meteo India » Mysore
ore: 12:00 - Osservazioni Meteo Mysore
Lat. 12° 18' N Lon. 76° 42' E Alt. 767 metri s.l.m.
28 °C
Nuvoloso
Temp. 24 Ore
26 °C
30 °C
Ovest
13 Km/h
Dew point 21 °C
Umidità 65 %
Visibilità 6 Km
Il sole sorge alle ore 06:12
Il sole tramonta alle ore 18:34
| Data e Ora | Cielo e Fenomeni | T °C | DP °C | Um. % | Pres. hPa | Vis. km | Vento km/h | |
|---|---|---|---|---|---|---|---|---|
| Oggi h: 12:00 | Nuvoloso | 28 | 21 | 65 | 1015 | 6 | O 13 | |
| Oggi h: 11:30 | Nuvoloso | 28 | 21 | 65 | 1015 | 6 | O 11.1 | |
| Oggi h: 11:00 | Nuvoloso | 27 | 21 | 69 | 1016 | 6 | O 11.1 | |
| Oggi h: 10:30 | Nuvoloso | 27 | 21 | 69 | 1016 | 6 | O 9.3 | |
| Oggi h: 10:00 | Nuvoloso | 26 | 21 | 73 | 1016 | 6 | O 11.1 | |
| Oggi h: 09:30 | Nuvoloso | 26 | 21 | 73 | 1016 | 6 | O 11.1 | |
| Oggi h: 09:00 | Nuvoloso | 26 | 21 | 73 | 1016 | 6 | O 11.1 | |
| Ieri h: 19:30 | Poco Nuvoloso | 26 | 19 | 65 | 1014 | 6 | O 11.1 | |
| Ieri h: 19:00 | Poco Nuvoloso | 26 | 19 | 65 | 1014 | 6 | O 13 | |
| Ieri h: 18:30 | Poco Nuvoloso | 27 | 19 | 61 | 1013 | 6 | O 14.8 | |
| Ieri h: 18:00 | Nuvoloso | 28 | 20 | 61 | 1013 | 8 | O 14.8 | |
| Ieri h: 17:30 | Nuvoloso | 29 | 20 | 58 | 1012 | 8 | O 16.7 | |
| Ieri h: 17:00 | Nuvoloso | 29 | 19 | 54 | 1012 | 8 | O/NO 20.3 | |
| Ieri h: 16:30 | Nuvoloso | 29 | 20 | 58 | 1012 | 8 | O 22.2 | |
| Ieri h: 16:00 | Nuvoloso | 29 | 20 | 58 | 1012 | 8 | O/NO 22.2 | |
| Ieri h: 15:30 | Nuvoloso | 30 | 19 | 51 | 1012 | 8 | O 18.5 | |
| Ieri h: 15:00 | Nuvoloso | 30 | 19 | 51 | 1012 | 8 | O 20.3 | |
| Ieri h: 14:30 | Nuvoloso | 30 | 19 | 51 | 1013 | 8 | O/NO 18.5 | |
| Ieri h: 14:00 | Nuvoloso | 29 | 19 | 54 | 1013 | 8 | NO 18.5 | |
| Ieri h: 13:30 | Nuvoloso | 29 | 20 | 58 | 1014 | 8 | O/NO 18.5 | |
| Ieri h: 13:00 | Nuvoloso | 28 | 20 | 61 | 1015 | 8 | O/NO 18.5 | |
| Ieri h: 12:30 | Nuvoloso | 28 | 20 | 61 | 1015 | 8 | O 16.7 | |



